• In United Kingdom
  • List of Countries
  • For 7 days
  • Water Temperature
  • Satellite Maps
  • Weather Map
  • Weather Widgets
  • user-avatar
    Login

    Hourly Weather Canberra

    Today, 18 January, Thursday

    Time Temperature Precipitation Wind Pressure Humidity
    00:00 +14°C° 0 mm 1 mps 711 mmHg 76%
    01:00 +13°C° 0 mm 1 mps 711 mmHg 79%
    02:00 +13°C° 0 mm 1 mps 711 mmHg 78%
    03:00 +13°C° 0 mm 1 mps 711 mmHg 78%
    04:00 +13°C° 0 mm 1 mps 711 mmHg 83%
    05:00 +15°C° 0 mm 1 mps 711 mmHg 74%
    06:00 +16°C° 0 mm 0 mps 712 mmHg 64%
    07:00 +18°C° 0 mm 0 mps 712 mmHg 55%
    08:00 +23°C° 0 mm 1 mps 712 mmHg 45%
    09:00 +27°C° 0 mm 1 mps 713 mmHg 34%
    10:00 +30°C° 0 mm 2 mps 713 mmHg 25%
    11:00 +32°C° 0 mm 2 mps 713 mmHg 22%
    12:00 +35°C° 0 mm 2 mps 712 mmHg 19%
    13:00 +36°C° 0 mm 2 mps 712 mmHg 15%
    14:00 +36°C° 0 mm 2 mps 712 mmHg 16%
    15:00 +36°C° 0 mm 2 mps 711 mmHg 16%
    16:00 +35°C° 0 mm 2 mps 711 mmHg 18%
    17:00 +32°C° 0 mm 2 mps 711 mmHg 24%
    18:00 +29°C° 0 mm 2 mps 711 mmHg 30%
    19:00 +27°C° 0 mm 1 mps 710 mmHg 36%
    20:00 +25°C° 0 mm 1 mps 710 mmHg 42%
    21:00 +23°C° 0 mm 1 mps 711 mmHg 48%
    22:00 +21°C° 0 mm 1 mps 711 mmHg 54%
    23:00 +20°C° 0 mm 1 mps 710 mmHg 55%

    Tomorrow, 19 January, Friday

    Time Temperature Precipitation Wind Pressure Humidity
    00:00 +20°C° 0 mm 1 mps 710 mmHg 56%
    01:00 +19°C° 0 mm 1 mps 710 mmHg 58%
    02:00 +19°C° 0 mm 1 mps 710 mmHg 58%
    03:00 +19°C° 0 mm 1 mps 710 mmHg 58%
    04:00 +19°C° 0 mm 1 mps 710 mmHg 58%
    05:00 +20°C° 0 mm 1 mps 710 mmHg 53%
    06:00 +22°C° 0 mm 1 mps 710 mmHg 48%
    07:00 +24°C° 0 mm 1 mps 711 mmHg 43%
    08:00 +28°C° 0 mm 1 mps 711 mmHg 35%
    09:00 +31°C° 0 mm 1 mps 711 mmHg 26%
    10:00 +35°C° 0 mm 1 mps 711 mmHg 18%
    11:00 +37°C° 0 mm 1 mps 711 mmHg 16%
    12:00 +39°C° 0 mm 1 mps 711 mmHg 14%
    13:00 +41°C° 0 mm 1 mps 710 mmHg 12%
    14:00 +40°C° 0 mm 2 mps 710 mmHg 12%
    15:00 +40°C° 0 mm 2 mps 709 mmHg 12%
    16:00 +39°C° 0 mm 3 mps 709 mmHg 13%
    17:00 +36°C° 0 mm 3 mps 709 mmHg 17%
    18:00 +34°C° 0 mm 3 mps 709 mmHg 21%
    19:00 +30°C° 0 mm 3 mps 709 mmHg 24%
    20:00 +28°C° 0 mm 2 mps 709 mmHg 27%
    21:00 +26°C° 0 mm 2 mps 709 mmHg 30%
    22:00 +24°C° 0 mm 1 mps 709 mmHg 32%
    23:00 +23°C° 0 mm 1 mps 709 mmHg 32%

    Day after tomorrow, 20 January, Saturday

    Time Temperature Precipitation Wind Pressure Humidity
    00:00 +23°C° 0 mm 1 mps 709 mmHg 32%
    01:00 +22°C° 0 mm 1 mps 709 mmHg 32%
    02:00 +22°C° 0 mm 1 mps 709 mmHg 32%
    03:00 +22°C° 0 mm 1 mps 709 mmHg 31%
    04:00 +21°C° 0 mm 1 mps 708 mmHg 31%
    05:00 +23°C° 0 mm 1 mps 709 mmHg 30%
    06:00 +25°C° 0 mm 1 mps 709 mmHg 29%
    07:00 +26°C° 0 mm 1 mps 710 mmHg 28%
    08:00 +30°C° 0 mm 1 mps 710 mmHg 23%
    09:00 +33°C° 0 mm 1 mps 710 mmHg 18%
    10:00 +37°C° 0 mm 2 mps 711 mmHg 13%
    11:00 +38°C° 0 mm 2 mps 710 mmHg 12%
    12:00 +39°C° 0 mm 2 mps 710 mmHg 11%
    13:00 +40°C° 0 mm 2 mps 709 mmHg 10%
    14:00 +40°C° 0 mm 3 mps 709 mmHg 11%
    15:00 +40°C° 0 mm 3 mps 709 mmHg 11%
    16:00 +40°C° 0 mm 4 mps 708 mmHg 11%
    17:00 +37°C° 0 mm 4 mps 708 mmHg 15%
    18:00 +34°C° 0 mm 4 mps 708 mmHg 19%
    19:00 +31°C° 0 mm 3 mps 708 mmHg 22%
    20:00 +29°C° 0 mm 3 mps 708 mmHg 26%
    21:00 +26°C° 0 mm 2 mps 708 mmHg 29%
    22:00 +24°C° 0 mm 2 mps 709 mmHg 33%
    23:00 +23°C° 0 mm 1 mps 708 mmHg 34%

    21 January, Sunday

    Time Temperature Precipitation Wind Pressure Humidity
    00:00 +22°C° 0 mm 1 mps 708 mmHg 35%
    01:00 +21°C° 0 mm 1 mps 707 mmHg 36%
    02:00 +21°C° 0 mm 1 mps 707 mmHg 36%
    03:00 +21°C° 0 mm 1 mps 707 mmHg 36%
    04:00 +20°C° 0 mm 1 mps 707 mmHg 35%
    05:00 +22°C° 0 mm 1 mps 707 mmHg 33%
    06:00 +23°C° 0 mm 1 mps 708 mmHg 31%
    07:00 +25°C° 0 mm 1 mps 708 mmHg 29%
    08:00 +28°C° 0 mm 2 mps 708 mmHg 24%
    09:00 +32°C° 0 mm 2 mps 709 mmHg 18%
    10:00 +36°C° 0 mm 3 mps 709 mmHg 13%
    11:00 +37°C° 0 mm 3 mps 708 mmHg 12%
    12:00 +39°C° 0 mm 3 mps 708 mmHg 11%
    13:00 +40°C° 0 mm 3 mps 707 mmHg 9%
    14:00 +40°C° 0 mm 3 mps 707 mmHg 10%
    15:00 +40°C° 0 mm 3 mps 706 mmHg 10%
    16:00 +40°C° 0 mm 3 mps 706 mmHg 10%
    17:00 +37°C° 0 mm 2 mps 705 mmHg 14%
    18:00 +35°C° 0 mm 2 mps 705 mmHg 18%
    19:00 +32°C° 0 mm 2 mps 705 mmHg 22%
    20:00 +30°C° 0 mm 2 mps 705 mmHg 28%
    21:00 +28°C° 0 mm 2 mps 705 mmHg 34%
    22:00 +26°C° 0 mm 2 mps 705 mmHg 40%
    23:00 +25°C° 0 mm 2 mps 705 mmHg 46%

    22 January, Monday

    Time Temperature Precipitation Wind Pressure Humidity
    00:00 +24°C° 0 mm 1 mps 704 mmHg 52%
    01:00 +23°C° 0 mm 1 mps 704 mmHg 59%
    02:00 +23°C° 0 mm 1 mps 704 mmHg 58%
    03:00 +23°C° 0 mm 1 mps 703 mmHg 58%
    04:00 +22°C° 0 mm 1 mps 703 mmHg 57%
    05:00 +24°C° 0 mm 1 mps 704 mmHg 53%
    06:00 +25°C° 0 mm 1 mps 704 mmHg 48%
    07:00 +26°C° 0 mm 1 mps 705 mmHg 43%
    08:00 +29°C° 0 mm 2 mps 705 mmHg 36%
    09:00 +33°C° 0 mm 3 mps 705 mmHg 28%
    10:00 +36°C° 0 mm 4 mps 706 mmHg 21%
    11:00 +37°C° 0 mm 4 mps 705 mmHg 20%
    12:00 +38°C° 0 mm 4 mps 705 mmHg 19%
    13:00 +40°C° 0 mm 5 mps 704 mmHg 18%
    14:00 +40°C° 0 mm 4 mps 704 mmHg 17%
    15:00 +40°C° 0 mm 4 mps 704 mmHg 16%
    16:00 +40°C° 0 mm 3 mps 703 mmHg 15%
    17:00 +37°C° 0 mm 2 mps 704 mmHg 18%
    18:00 +34°C° 0 mm 1 mps 704 mmHg 21%
    19:00 +32°C° 0 mm 1 mps 704 mmHg 24%
    20:00 +31°C° 0 mm 1 mps 704 mmHg 27%
    21:00 +30°C° 0 mm 2 mps 705 mmHg 30%
    22:00 +29°C° 0 mm 3 mps 705 mmHg 33%
    23:00 +27°C° 0 mm 2 mps 705 mmHg 44%

    23 January, Tuesday

    Time Temperature Precipitation Wind Pressure Humidity
    00:00 +25°C° 0 mm 2 mps 705 mmHg 55%
    01:00 +23°C° 0 mm 2 mps 705 mmHg 66%
    02:00 +23°C° 0.1 mm 2 mps 705 mmHg 72%
    03:00 +21°C° 0.1 mm 2 mps 705 mmHg 78%
    04:00 +20°C° 0.1 mm 2 mps 705 mmHg 84%
    05:00 +21°C° 0 mm 2 mps 705 mmHg 80%
    06:00 +23°C° 0 mm 2 mps 706 mmHg 76%
    07:00 +24°C° 0 mm 1 mps 706 mmHg 73%
    08:00 +27°C° 0 mm 2 mps 707 mmHg 61%
    09:00 +30°C° 0 mm 2 mps 707 mmHg 49%
    10:00 +34°C° 0 mm 3 mps 707 mmHg 37%
    11:00 +35°C° 0 mm 3 mps 707 mmHg 31%
    12:00 +37°C° 0 mm 3 mps 707 mmHg 26%
    13:00 +38°C° 0 mm 4 mps 706 mmHg 21%
    14:00 +38°C° 0 mm 4 mps 706 mmHg 22%
    15:00 +38°C° 0 mm 3 mps 706 mmHg 23%
    16:00 +37°C° 0 mm 3 mps 705 mmHg 23%
    17:00 +35°C° 0 mm 3 mps 705 mmHg 29%
    18:00 +33°C° 0 mm 3 mps 705 mmHg 34%
    19:00 +31°C° 0 mm 2 mps 705 mmHg 39%
    20:00 +28°C° 0.1 mm 2 mps 706 mmHg 51%
    21:00 +26°C° 0.1 mm 2 mps 706 mmHg 63%
    22:00 +24°C° 0.1 mm 2 mps 706 mmHg 75%
    23:00 +24°C° 0 mm 2 mps 706 mmHg 80%
    Show more